Home   Weather   Port Moresby   Past weeks
Flag for Papua New Guinea

Past Weather in Port Moresby, Papua New Guinea — Yesterday and Last 2 Weeks

Now
88 °F

Broken clouds.


Feels Like: 98 °F
Forecast: 91 / 77 °F
Wind: 14 mph from West

Location: Moresby

Current Time: Jan 20, 2019 at 2:56:07 pm

Latest Report: Jan 20, 2019 at 2:00 pm


Visibility: N/A

Pressure: 29.74 "Hg

Humidity: 66%

Dew Point: 75 °F

Location of Port MoresbyLocation

Past Weather in Port Moresby — Graph

°F

Port Moresby Temperature Yesterday

Maximum temperature yesterday: 88 °F (at 1:00 pm)
Minimum temperature yesterday: 75 °F (at 1:00 am)
Average temperature yesterday: 80 °F

High & Low Weather Summary for the Past Weeks

 TemperatureHumidityPressure
High91 °F (Jan 17, 12:00 pm)100% (Jan 6, 2:00 am)29.86 "Hg (Jan 6, 2:00 am)
Low72 °F (Jan 13, 9:00 am)52% (Jan 17, 12:00 pm)29.65 "Hg (Jan 14, 4:00 pm)
Average82 °F82%29.77 "Hg
* Reported Jan 5 1:00 pm — Jan 20 1:00 pm, Port Moresby. Weather by CustomWeather, © 2019

Note: Actual official high and low records may vary slightly from our data, if they occured in-between our weather recording intervals... More about our weather records

Advertising

Port Moresby Weather History for the Previous 24 Hours

Scroll right to see more
 ConditionsComfort  
Time TempWeatherWind HumidityBarometerVisibility
1:00 pm
Sun, Jan 20
86 °FBroken clouds.14 mph70%29.77 "HgN/A
12:00 pm88 °FBroken clouds.12 mph66%29.80 "HgN/A
11:00 am86 °FBroken clouds.13 mph66%29.80 "HgN/A
10:00 am86 °FBroken clouds.15 mph66%29.80 "HgN/A
9:00 am82 °FScattered clouds.15 mph79%29.80 "HgN/A
8:00 am82 °FScattered clouds.10 mph79%29.77 "HgN/A
7:00 am77 °FScattered clouds.8 mph94%29.77 "HgN/A
6:00 am77 °FPassing clouds.12 mph94%29.77 "HgN/A
5:00 am77 °FMostly cloudy.7 mph94%29.74 "HgN/A
4:00 am77 °FOvercast.5 mph94%29.74 "HgN/A
3:00 am77 °FMostly cloudy.5 mph94%29.74 "HgN/A
2:00 am77 °FMostly cloudy.5 mph94%29.74 "HgN/A
1:00 am77 °FMostly cloudy.2 mph94%29.77 "HgN/A
12:00 am77 °FRain showers. Passing clouds.6 mph94%29.77 "HgN/A
11:00 pm
Sat, Jan 19
77 °FRain showers. Passing clouds.6 mph94%29.80 "HgN/A
10:00 pm77 °FRain showers. Passing clouds.6 mph94%29.80 "HgN/A
8:00 pm75 °FMostly cloudy.12 mph100%29.77 "Hg2 mi
7:00 pm75 °FMostly cloudy.12 mph100%29.77 "HgN/A
5:00 pm84 °FScattered clouds.12 mph79%29.71 "HgN/A
3:00 pm86 °FScattered clouds.12 mph75%29.71 "HgN/A
2:00 pm88 °FScattered clouds.12 mph66%29.71 "HgN/A
Weather by CustomWeather, © 2019

See weather overview